DW4691 Weather Reports


time (UTC)temp
F
wind
direction
speed
knots
gust
knots
rain 1hr
in
rain 24hr
in
rain mn
in
humidity
%
barometer
mb
20260903181551 84 0 0.0 0.0 0.00 0.01 0.01 85 1014.2
20260903180112 85 0 0.0 0.0 0.00 0.01 0.01 86 1014.5
20260903174547 85 0 0.0 0.0 0.00 0.01 0.01 87 1014.6
20260903173057 86 0 0.0 0.0 0.00 0.01 0.01 86 1014.6
20260903171554 86 0 0.0 0.0 0.00 0.01 0.01 86 1014.3
20260903170052 85 0 0.0 0.0 0.00 0.01 0.01 84 1014.4
20260903164609 85 0 0.0 0.0 0.00 0.01 0.01 90 1014.5
20260903163055 84 0 0.0 0.0 0.00 0.01 0.01 89 1014.5
20260903161554 84 0 0.0 0.0 0.00 0.01 0.01 90 1014.4
20260903160054 84 0 0.0 0.0 0.00 0.01 0.01 90 1014.4
20260903154557 83 0 0.0 0.0 0.00 0.01 0.01 90 1014.5
20260903153056 83 0 0.0 0.0 0.00 0.01 0.01 92 1014.5
20260903151554 82 0 0.0 0.0 0.00 0.01 0.01 92 1014.6
20260903150059 82 0 0.0 0.0 0.00 0.01 0.01 93 1014.7
20260903144557 82 0 0.0 0.0 0.00 0.01 0.01 94 1014.9
20260903143056 81 0 0.0 0.0 0.00 0.01 0.01 94 1014.8
20260903141554 80 0 0.0 0.0 0.00 0.01 0.01 94 1014.8
20260903140053 80 0 0.0 0.0 0.00 0.01 0.01 94 1014.6
20260903134556 80 0 0.0 0.0 0.00 0.01 0.01 94 1014.5
20260903133055 79 0 0.0 0.0 0.00 0.01 0.01 94 1014.5
20260903131553 79 0 0.0 0.0 0.00 0.01 0.01 94 1014.4
20260903130112 79 0 0.0 0.0 0.00 0.01 0.01 93 1014.2
20260903124557 79 0 0.0 0.0 0.00 0.01 0.01 94 1014.0
20260903123052 79 0 0.0 0.0 0.00 0.01 0.01 94 1013.9
20260903121553 79 0 0.0 0.0 0.00 0.01 0.01 93 1013.6
20260903120048 79 0 0.0 0.0 0.00 0.01 0.01 93 1013.5
20260903114604 79 0 0.0 0.0 0.00 0.01 0.01 93 1013.6
20260903113053 79 0 0.0 0.0 0.00 0.01 0.01 93 1013.5
20260903111603 79 0 0.0 0.0 0.00 0.01 0.01 93 1013.4
20260903110118 79 0 0.0 0.0 0.00 0.01 0.01 93 1013.3
20260903104555 79 0 0.0 0.0 0.00 0.01 0.01 93 1013.4
20260903103053 79 0 0.0 0.0 0.00 0.01 0.01 93 1013.3
20260903101559 79 0 0.0 0.0 0.00 0.01 0.01 93 1013.1
20260903100057 79 0 0.0 0.0 0.00 0.01 0.01 93 1013.1
20260903094558 79 0 0.0 0.0 0.00 0.01 0.01 93 1013.2
20260903093053 79 0 0.0 0.0 0.00 0.01 0.01 93 1013.2
20260903091549 79 0 0.0 0.0 0.00 0.01 0.01 93 1013.1
20260903090056 79 0 0.0 0.0 0.00 0.01 0.01 93 1013.1
20260903084553 79 0 0.0 0.0 0.00 0.01 0.01 93 1013.1
20260903083050 79 0 0.0 0.0 0.00 0.01 0.01 93 1013.1
20260903081554 79 0 0.0 0.0 0.00 0.01 0.01 93 1013.0
20260903080106 80 0 0.0 0.0 0.00 0.01 0.01 93 1012.9
20260903074610 80 0 0.0 0.0 0.00 0.01 0.01 93 1012.8
20260903073100 80 0 0.0 0.0 0.00 0.01 0.01 93 1012.7
20260903071554 80 0 0.0 0.0 0.00 0.01 0.01 93 1012.9
20260903070054 80 0 0.0 0.0 0.00 0.01 0.01 93 1013.0
20260903064547 80 0 0.0 0.0 0.01 0.01 0.01 93 1013.2
20260903063054 79 0 0.0 0.0 0.01 0.01 0.01 93 1013.1
20260903061554 79 0 0.0 0.0 0.01 0.01 0.01 93 1013.3
20260903060051 79 0 0.0 0.0 0.01 0.01 0.01 93 1013.3
20260903054553 78 0 0.0 0.0 0.00 0.00 0.00 93 1013.5
20260903053107 78 0 0.0 0.0 0.00 0.00 0.00 93 1013.8
20260903051552 78 0 0.0 0.0 0.00 0.00 0.00 93 1014.4
20260903050056 78 0 0.0 0.0 0.00 0.00 0.00 93 1014.3
20260903044556 78 0 0.0 0.0 0.00 0.00 0.00 93 1014.4
20260903043051 78 0 0.0 0.0 0.00 0.00 0.00 93 1014.6
20260903041604 78 0 0.0 0.0 0.00 0.00 0.00 92 1014.9
20260903040058 78 0 0.0 0.0 0.00 0.00 0.00 92 1014.8
20260903034552 78 0 0.0 0.0 0.00 0.00 0.00 92 1014.4
20260903033107 78 0 0.0 0.0 0.00 0.00 0.00 92 1014.1
20260903031554 78 0 0.0 0.0 0.00 0.00 0.00 92 1014.0
20260903030055 78 0 0.0 0.0 0.00 0.00 0.00 92 1013.8
20260903024552 78 0 0.0 0.0 0.00 0.00 0.00 92 1013.6
20260903023054 78 0 0.0 0.0 0.00 0.00 0.00 91 1013.4
20260903021607 78 0 0.0 0.0 0.00 0.00 0.00 91 1013.1
20260903020054 78 0 0.0 0.9 0.00 0.00 0.00 91 1012.5
20260903014551 78 0 0.0 0.9 0.00 0.00 0.00 91 1012.5
20260903013105 78 0 0.0 0.9 0.00 0.00 0.00 90 1012.7
20260903011555 79 0 0.0 0.0 0.00 0.00 0.00 90 1012.8
20260903010109 79 0 0.0 2.6 0.00 0.00 0.00 90 1013.2
20260903004557 80 0 0.0 4.3 0.00 0.00 0.00 88 1012.9
20260903003102 83 0 0.0 0.0 0.00 0.00 0.00 83 1012.7
20260903001557 87 0 0.0 1.7 0.00 0.00 0.00 73 1011.7
20260903000058 89 0 0.0 3.5 0.00 0.00 0.00 67 1011.2
20260902234602 90 0 0.0 0.0 0.00 0.00 0.00 64 1011.0
20260902233109 91 0 0.0 0.9 0.00 0.00 0.00 62 1010.8
20260902231557 93 0 0.0 0.9 0.00 0.00 0.00 58 1011.1
20260902230051 95 0 0.0 0.9 0.00 0.00 0.00 55 1010.9
20260902224552 95 0 0.0 1.7 0.00 0.00 0.00 55 1010.8
20260902223116 96 0 0.0 1.7 0.00 0.00 0.00 53 1010.9
20260902221615 97 0 0.0 2.6 0.00 0.00 0.00 51 1010.8
20260902220109 97 0 0.0 1.7 0.00 0.00 0.00 50 1010.7
20260902214601 97 0 0.0 2.6 0.00 0.00 0.00 49 1010.8
20260902213104 97 0 0.0 1.7 0.00 0.00 0.00 48 1011.0
20260902211609 97 0 0.0 1.7 0.00 0.00 0.00 49 1011.2
20260902210056 97 0 0.0 2.6 0.00 0.00 0.00 50 1011.3
20260902204553 98 0 0.0 0.9 0.00 0.00 0.00 50 1011.2
20260902203058 98 0 0.0 2.6 0.00 0.00 0.00 51 1011.5
20260902201621 97 115 0.0 5.2 0.00 0.00 0.00 52 1011.6
20260902200056 97 0 0.0 1.7 0.00 0.00 0.00 53 1011.8
20260902194602 97 0 0.0 3.5 0.00 0.00 0.00 55 1012.1
20260902193058 97 0 0.0 3.5 0.00 0.00 0.00 56 1012.4
20260902191555 97 0 0.0 1.7 0.00 0.00 0.00 56 1012.5
20260902190054 96 0 0.0 3.5 0.00 0.00 0.00 57 1012.8
20260902184647 95 138 0.0 4.3 0.00 0.00 0.00 58 1013.0
20260902183058 94 0 0.0 2.6 0.00 0.00 0.00 59 1013.2